This demonstration page uses our WeatherBlox Daily Observations layout. Learn more.

Hourly Observations for July 29, 2018

Temp ( °F °C ) Dew Point ( °F °C ) Humidity (%) Winds ( mph kmh ) Pressure ( in mb ) Visibility ( mi km ) Precip ( " mm )
12:15 am 00:15 Cloudy with Light Rain 67 19.3 67 19.3 100 100 SE 12 19 30.06 1018 10 16.0934 0 0
12:35 am 00:35 Cloudy 67 19.5 67 19.5 100 100 E 10 17 30.06 1018 7 11.26538 0.01 0.254
12:55 am 00:55 Cloudy with Light Rain 67 19.4 67 19.3 99 99 E 12 19 30.06 1018 7 11.26538 0.01 0.254
1:15 am 01:15 Cloudy 67 19.3 67 19.3 100 100 ESE 16 26 30 1016 7 11.26538 0.01 0.254
1:35 am 01:35 Cloudy 67 19.2 67 19.2 100 100 E 7 11 30.03 1017 7 11.26538 0.01 0.254
1:55 am 01:55 Cloudy 67 19.2 67 19.2 100 100 ESE 6 9 30.03 1017 10 16.0934 0.01 0.254
2:15 am 02:15 Partly Cloudy 66 18.7 66 18.7 100 100 Calm 30.03 1017 7 11.26538 0 0
2:35 am 02:35 Mostly Cloudy 66 18.7 66 18.7 100 100 Calm 30.03 1017 10 16.0934 0 0
2:55 am 02:55 Cloudy 65 18.5 65 18.5 100 100 Calm 30.03 1017 7 11.26538 0 0
3:15 am 03:15 Cloudy with Mist and Fog 64 18 64 18 100 100 NNE 3 6 30 1016 5 8.0467 0 0
3:35 am 03:35 Mostly Cloudy with Mist and Fog 65 18.2 65 18.2 100 100 NNE 3 6 30.03 1017 3 4.82802 0 0
3:55 am 03:55 Cloudy with Mist and Fog 65 18.2 65 18.2 100 100 NE 7 11 30.03 1017 4 6.43736 0 0
4:15 am 04:15 Cloudy with Mist and Fog 65 18.4 65 18.4 100 100 NE 6 9 30.03 1017 3 4.82802 0 0
4:35 am 04:35 Cloudy with Mist and Fog 65 18.4 65 18.4 100 100 NNE 6 9 30.03 1017 3 4.82802 0 0
4:55 am 04:55 Cloudy with Mist and Fog 65 18.3 65 18.3 100 100 NE 8 13 30.06 1018 3 4.82802 0 0
5:15 am 05:15 Cloudy with Mist and Fog 65 18.1 65 18.1 100 100 NNE 7 11 30.06 1018 3 4.82802 0 0
5:35 am 05:35 Cloudy with Mist and Fog 64 18 64 18 100 100 NE 7 11 30.06 1018 2.5 4.02335 0 0
5:55 am 05:55 Cloudy with Mist and Fog 64 18 64 18 100 100 ENE 12 19 30.06 1018 2 3.21868 0.01 0.254
6:15 am 06:15 Cloudy with Mist and Fog 63 17.3 63 17.3 100 100 NE 12 19 30.06 1018 2.5 4.02335 0 0
6:35 am 06:35 Cloudy with Mist and Fog 63 17.3 63 17.3 100 100 NE 9 15 30.06 1018 3 4.82802 0 0
6:55 am 06:55 Cloudy with Mist and Fog 64 17.5 64 17.5 100 100 NE 8 13 30.06 1018 2.5 4.02335 0 0
7:15 am 07:15 Cloudy with Fog 64 17.5 64 17.5 100 100 NE 10 17 30.03 1017 0.5 0.80467 0 0
7:35 am 07:35 Cloudy with Mist and Fog 64 17.5 64 17.5 100 100 ENE 10 17 30.06 1018 1.25 2.011675 0 0
7:55 am 07:55 Cloudy with Mist and Fog 64 17.6 64 17.6 100 100 ENE 9 15 30.06 1018 3 4.82802 0 0
8:15 am 08:15 Cloudy with Mist and Fog 64 17.9 64 17.9 100 100 E 6 9 30.06 1018 5 8.0467 0 0
8:35 am 08:35 Cloudy with Mist and Fog 65 18.1 65 18.1 100 100 ENE 6 9 30.06 1018 5 8.0467 0 0
8:55 am 08:55 Cloudy with Mist and Fog 65 18.5 65 18.5 100 100 Calm 30.06 1018 5 8.0467 0 0
9:15 am 09:15 Cloudy 65 18.6 65 18.1 97 97 Calm 30.06 1018 7 11.26538 0 0
9:35 am 09:35 Cloudy 66 18.7 65 18.2 97 97 NE 5 7 30.06 1018 7 11.26538 0 0
9:55 am 09:55 Cloudy 66 18.7 65 18.2 97 97 NE 7 11 30.09 1019 7 11.26538 0 0
10:15 am 10:15 Cloudy with Light Drizzle 66 18.8 65 18.4 98 98 NNE 5 7 30.06 1018 7 11.26538 0 0
10:35 am 10:35 Cloudy 67 19.6 65 18.5 93 93 NE 9 15 30.06 1018 10 16.0934 0 0
10:55 am 10:55 Cloudy 67 19.6 65 18.4 93 93 NE 8 13 30.06 1018 10 16.0934 0 0
11:15 am 11:15 Cloudy 67 19.6 65 18.1 91 91 NE 9 15 30.06 1018 10 16.0934 0 0
11:35 am 11:35 Cloudy 67 19.4 65 18.2 93 93 NE 12 19 30.06 1018 10 16.0934 0 0
11:55 am 11:55 Cloudy 69 20.3 66 19 92 92 NNE 7 11 30.09 1019 10 16.0934 0 0
12:15 pm 12:15 Mostly Cloudy 69 20.5 65 18.5 88 88 NNE 6 9 30.09 1019 10 16.0934 0 0
12:35 pm 12:35 Mostly Cloudy 70 21.1 65 18.1 83 83 ENE 5 7 30.03 1017 10 16.0934 0 0
12:55 pm 12:55 Cloudy 70 21 64 18 83 83 ENE 6 9 30.03 1017 10 16.0934 0 0
1:15 pm 13:15 Partly Cloudy 71 21.6 64 17.5 78 78 NNE 5 7 30.03 1017 10 16.0934 0 0
1:35 pm 13:35 Partly Cloudy 72 22.3 64 17.7 75 75 N 6 9 30.03 1017 10 16.0934 0 0
1:55 pm 13:55 Mostly Cloudy 72 22.2 64 17.8 76 76 NNE 6 9 30.03 1017 10 16.0934 0 0
2:15 pm 14:15 Mostly Cloudy 72 22.2 63 17.2 73 73 NE 5 7 30.03 1017 10 16.0934 0 0
2:35 pm 14:35 Partly Cloudy 73 22.6 64 17.5 73 73 Calm 30.03 1017 10 16.0934 0 0
2:55 pm 14:55 Sunny 74 23.3 65 18.5 75 75 NNE 5 7 30.03 1017 10 16.0934 0 0
3:15 pm 15:15 Sunny 74 23.4 63 17.4 69 69 ENE 3 6 30.03 1017 10 16.0934 0 0
3:35 pm 15:35 Sunny 74 23.1 63 17.3 70 70 ESE 3 6 30.03 1017 10 16.0934 0 0
3:55 pm 15:55 Sunny 74 23.6 62 16.6 65 65 Calm 30.03 1017 10 16.0934 0 0
4:15 pm 16:15 Partly Cloudy 74 23.6 61 16.2 63 63 Calm 30.03 1017 10 16.0934 0 0
4:35 pm 16:35 Partly Cloudy 74 23.6 64 17.5 69 69 N 5 7 30.03 1017 10 16.0934 0 0
4:55 pm 16:55 Mostly Cloudy 76 24.3 64 17.6 66 66 NE 7 11 29.97 1015 10 16.0934 0 0
5:15 pm 17:15 Partly Cloudy 75 23.8 64 17.7 69 69 E 5 7 30 1016 10 16.0934 0 0
5:35 pm 17:35 Partly Cloudy 74 23.6 63 17.3 68 68 NE 3 6 30 1016 10 16.0934 0 0
5:55 pm 17:55 Sunny 74 23.5 63 17 67 67 NE 3 6 30.03 1017 10 16.0934 0 0
6:15 pm 18:15 Sunny 73 23 64 17.9 73 73 NNE 5 7 30.03 1017 10 16.0934 0 0
6:35 pm 18:35 Sunny 73 23 64 17.7 72 72 NE 5 7 30 1016 10 16.0934 0 0
6:55 pm 18:55 Sunny 73 22.5 64 18 76 76 NE 3 6 30 1016 10 16.0934 0 0
7:15 pm 19:15 Partly Cloudy 72 22.1 65 18.2 79 79 Calm 30 1016 10 16.0934 0 0
7:35 pm 19:35 Partly Cloudy with Nearby Thunderstorms 71 21.9 66 18.9 83 83 E 3 6 30 1016 10 16.0934 0 0
7:55 pm 19:55 Sunny 71 21.6 65 18.3 82 82 E 6 9 30 1016 10 16.0934 0 0
8:15 pm 20:15 Sunny 70 21.2 65 18.3 84 84 E 5 7 30 1016 10 16.0934 0 0
8:35 pm 20:35 Sunny 69 20.6 65 18.5 88 88 ENE 6 9 30 1016 10 16.0934 0 0
8:55 pm 20:55 Sunny 68 20 65 18.5 91 91 ENE 8 13 30.03 1017 10 16.0934 0 0
9:15 pm 21:15 Mostly Cloudy 68 20 65 18.3 90 90 E 3 6 30.06 1018 10 16.0934 0 0
9:35 pm 21:35 Partly Cloudy 67 19.5 65 18.3 93 93 E 7 11 30.06 1018 10 16.0934 0 0
9:55 pm 21:55 Partly Cloudy 67 19.3 65 18.2 93 93 ENE 7 11 30.06 1018 10 16.0934 0 0
10:15 pm 22:15 Mostly Cloudy with Nearby Thunderstorms 67 19.3 65 18.1 93 93 NNE 5 7 30.09 1019 10 16.0934 0 0
10:35 pm 22:35 Cloudy with Rain 66 19 65 18.3 96 96 Calm 30.06 1018 7 11.26538 0.03 0.762
10:55 pm 22:55 Cloudy with Light Rain 66 19.1 65 18.1 94 94 SSE 6 9 30.06 1018 10 16.0934 0.04 1.016
11:15 pm 23:15 Cloudy 66 19 65 18.2 95 95 S 5 7 30.06 1018 10 16.0934 0 0
11:35 pm 23:35 Mostly Cloudy 65 18.6 65 18.1 97 97 SE 5 7 30.06 1018 10 16.0934 0 0
11:55 pm 23:55 Mostly Cloudy 65 18.4 64 17.9 97 97 Calm 30.06 1018 10 16.0934 0 0

Powered by AerisWeather